TimeHST,TemperatureF,Dew PointF,Humidity,Sea Level PressureIn,VisibilityMPH,Wind Direction,Wind SpeedMPH,Gust SpeedMPH,PrecipitationIn,Events,Conditions,WindDirDegrees,DateUTC
12:24 AM,69.8,66.2,88,30.06,10.0,SW,4.6,-,N/A,,Mostly Cloudy,230,2011-11-15 10:24:00
12:34 AM,69.8,66.2,88,30.05,10.0,SSW,4.6,-,N/A,,Mostly Cloudy,210,2011-11-15 10:34:00
12:53 AM,70.0,66.0,87,30.05,10.0,Calm,Calm,-,N/A,,Overcast,0,2011-11-15 10:53:00
1:53 AM,69.1,68.0,96,30.03,8.0,SSW,4.6,-,0.04,Rain,Light Rain,200,2011-11-15 11:53:00
2:45 AM,69.8,66.2,88,30.01,10.0,WSW,4.6,-,N/A,Rain,Light Rain,250,2011-11-15 12:45:00
2:53 AM,69.1,66.0,90,30.01,10.0,WSW,3.5,-,0.02,,Mostly Cloudy,250,2011-11-15 12:53:00
3:01 AM,69.8,66.2,88,30.01,10.0,West,3.5,-,N/A,,Scattered Clouds,260,2011-11-15 13:01:00
3:53 AM,69.1,66.0,90,30.01,10.0,SW,4.6,-,N/A,,Overcast,230,2011-11-15 13:53:00
4:53 AM,69.1,64.9,87,30.00,10.0,Calm,Calm,-,N/A,,Overcast,0,2011-11-15 14:53:00
5:53 AM,68.0,64.0,87,30.01,10.0,WSW,5.8,-,0.00,,Mostly Cloudy,250,2011-11-15 15:53:00
6:53 AM,66.9,63.0,87,30.03,10.0,WSW,6.9,-,N/A,,Mostly Cloudy,240,2011-11-15 16:53:00
7:03 AM,68.0,62.6,83,30.04,10.0,SW,5.8,-,N/A,,Mostly Cloudy,230,2011-11-15 17:03:00
7:26 AM,69.8,64.4,83,30.05,10.0,South,5.8,-,N/A,,Mostly Cloudy,190,2011-11-15 17:26:00
7:53 AM,71.1,66.0,84,30.04,7.0,SW,8.1,-,0.00,Rain,Light Rain,220,2011-11-15 17:53:00
8:53 AM,75.0,66.9,76,30.05,10.0,SW,6.9,-,0.00,,Scattered Clouds,230,2011-11-15 18:53:00
9:53 AM,79.0,66.9,66,30.05,10.0,Variable,4.6,-,N/A,,Scattered Clouds,0,2011-11-15 19:53:00
10:20 AM,78.8,66.2,65,30.04,10.0,ENE,5.8,-,N/A,,Mostly Cloudy,70,2011-11-15 20:20:00
10:36 AM,78.8,66.2,65,30.04,10.0,ESE,3.5,-,N/A,,Scattered Clouds,110,2011-11-15 20:36:00
10:53 AM,79.0,66.9,66,30.03,10.0,East,10.4,-,N/A,,Partly Cloudy,90,2011-11-15 20:53:00
11:28 AM,80.6,66.2,61,30.01,10.0,ESE,5.8,-,N/A,,Partly Cloudy,110,2011-11-15 21:28:00
11:53 AM,80.1,66.9,64,30.00,10.0,ESE,9.2,-,N/A,,Partly Cloudy,110,2011-11-15 21:53:00
12:53 PM,81.0,66.9,62,29.97,10.0,East,10.4,-,N/A,,Partly Cloudy,100,2011-11-15 22:53:00
1:53 PM,82.0,66.0,58,29.96,10.0,ESE,10.4,-,N/A,,Partly Cloudy,110,2011-11-15 23:53:00
2:53 PM,81.0,66.0,60,29.96,10.0,East,11.5,-,N/A,,Scattered Clouds,90,2011-11-16 00:53:00
3:53 PM,79.0,66.0,64,29.96,10.0,ESE,9.2,-,N/A,,Mostly Cloudy,110,2011-11-16 01:53:00
4:53 PM,75.9,66.9,74,29.97,10.0,East,8.1,-,N/A,,Clear,90,2011-11-16 02:53:00
5:53 PM,73.9,66.0,76,29.99,10.0,Calm,Calm,-,N/A,,Partly Cloudy,0,2011-11-16 03:53:00
6:19 PM,73.4,68.0,83,29.99,10.0,Calm,Calm,-,N/A,,Mostly Cloudy,0,2011-11-16 04:19:00
6:53 PM,73.0,68.0,84,30.00,10.0,WSW,3.5,-,N/A,,Mostly Cloudy,240,2011-11-16 04:53:00
7:00 PM,73.4,66.2,78,30.01,10.0,WSW,3.5,-,N/A,,Mostly Cloudy,240,2011-11-16 05:00:00
7:53 PM,73.0,66.9,81,30.02,10.0,WSW,4.6,-,N/A,,Scattered Clouds,240,2011-11-16 05:53:00
8:05 PM,73.4,66.2,78,30.03,10.0,WSW,5.8,-,N/A,,Mostly Cloudy,250,2011-11-16 06:05:00
8:16 PM,73.4,66.2,78,30.03,10.0,WSW,4.6,-,N/A,,Scattered Clouds,250,2011-11-16 06:16:00
8:24 PM,73.4,66.2,78,30.03,10.0,SE,4.6,-,N/A,,Mostly Cloudy,140,2011-11-16 06:24:00
8:36 PM,71.6,66.2,83,30.03,10.0,SW,3.5,-,N/A,,Scattered Clouds,230,2011-11-16 06:36:00
8:53 PM,72.0,66.9,84,30.03,10.0,WSW,3.5,-,N/A,,Mostly Cloudy,240,2011-11-16 06:53:00
9:03 PM,73.4,66.2,78,30.04,10.0,Calm,Calm,-,N/A,,Mostly Cloudy,0,2011-11-16 07:03:00
9:16 PM,71.6,66.2,83,30.04,10.0,WSW,5.8,-,N/A,,Mostly Cloudy,240,2011-11-16 07:16:00
9:53 PM,71.1,64.9,81,30.04,10.0,WSW,6.9,-,N/A,,Clear,240,2011-11-16 07:53:00
10:53 PM,70.0,63.0,78,30.03,10.0,SW,5.8,-,N/A,,Clear,230,2011-11-16 08:53:00
11:53 PM,70.0,63.0,78,30.03,10.0,WSW,6.9,-,N/A,,Overcast,240,2011-11-16 09:53:00